Flag for Germany Weather past 2 weeks in Friesoythe, Lower Saxony, Germany

Now
54 °F

Cool.


Feels Like: 50 °F
Forecast: 49 / 63 °F
Wind: 12 mph from Southwest

Location: Meppen-Mil

Current Time: Jul 30, 2015 at 2:39:24 AM

Latest Report: Jul 30, 2015 at 1:20 AM


Visibility: 4 mi

Pressure: 29.80 "Hg

Humidity: 88%

Dew point: 50 °F

Location of FriesoytheLocation

Historic Weather in Friesoythe — Graph

°F

Friesoythe temperature yesterday

Maximum temperature yesterday: 63 °F (at 1:46 PM)
Minimum temperature yesterday: 54 °F (at 5:20 AM)
Average temperature yesterday: 57 °F

Past Weeks' High & Low Weather Summary

 TemperatureHumidityPressure
High82 °F (Jul 17, 12:20 PM)94% (Jul 15, 6:20 AM)30.09 "Hg (Jul 15, 6:20 AM)
Low50 °F (Jul 20, 4:20 AM)36% (Jul 16, 3:20 PM)29.39 "Hg (Jul 25, 4:20 PM)
Average63 °F74%29.83 "Hg
* Reported Jul 15 1:20 AM — Jul 30 1:20 AM, Friesoythe, Weather by CustomWeather, © 2015

Note: Actual official high and low records may vary slightly from our data, if they occured in-between our weather recording intervals... More about our weather records

Advertising

Friesoythe weather history for previous 24 hours

 ConditionsComfort  
Time TempWeatherWind HumidityBarometerVisibility
1:20 AM
Thu, Jul 30
54 °FCool.12 mph88%29.80 "Hg4 mi
12:20 AM55 °FCool.13 mph82%29.80 "Hg4 mi
11:20 PM
Wed, Jul 29
55 °FCool.12 mph82%29.77 "Hg5 mi
10:20 PM55 °FCool.13 mph82%29.77 "Hg5 mi
9:20 PM55 °FCool.12 mph82%29.74 "Hg5 mi
8:20 PM55 °FCool.14 mph82%29.74 "Hg4 mi
7:20 PM55 °FCool.12 mph88%29.71 "Hg5 mi
6:20 PM55 °FCool.15 mph88%29.71 "Hg6 mi
5:20 PM57 °FCool.13 mph82%29.68 "Hg2 mi
4:20 PM59 °FCool.10 mph77%29.68 "Hg5 mi
3:20 PM59 °FCool.12 mph77%29.68 "Hg6 mi
2:20 PM61 °FRefreshingly cool.15 mph59%29.68 "Hg4 mi
1:46 PM63 °FThundershowers. Passing clouds.17 mph59%29.65 "HgN/A
1:20 PM61 °FScattered showers. Scattered clouds.13 mph68%29.65 "HgN/A
12:20 PM55 °FScattered showers. Scattered clouds.10 mph77%29.65 "HgN/A
11:20 AM61 °FScattered showers. Scattered clouds.13 mph68%29.65 "HgN/A
10:20 AM59 °FScattered showers. Scattered clouds.14 mph72%29.65 "HgN/A
9:20 AM57 °FScattered clouds.10 mph77%29.68 "HgN/A
8:20 AM55 °FScattered showers. Broken clouds.8 mph88%29.68 "HgN/A
7:20 AM54 °FSprinkles. Partly cloudy.8 mph88%29.68 "HgN/A
6:20 AM54 °FCool.9 mph88%29.65 "Hg5 mi
5:20 AM54 °FCool.8 mph88%29.65 "Hg4 mi
4:20 AM55 °FCool.12 mph88%29.65 "Hg4 mi
3:20 AM57 °FCool.9 mph77%29.65 "Hg5 mi
2:20 AM55 °FCool.9 mph82%29.65 "Hg5 mi
Weather by CustomWeather, © 2015

See weather overviewHow to use our weather pages